GW2670 Weather Reports


time (UTC)temp
C
wind
direction
speed
KPH
gust
KPH
rain 1hr
cm
rain 24hr
cm
rain mn
cm
humidity
%
barometer
mb
20260506135018 14 200 1.6 9.7 0.00 1.40 0.00 61 1011.0
20260506134535 14 335 0.0 9.7 0.00 1.40 0.00 60 1011.1
20260506134014 14 189 0.0 4.8 0.00 1.40 0.00 63 1011.0
20260506133511 14 232 1.6 8.0 0.00 1.40 0.00 64 1011.1
20260506133029 14 193 3.2 11.3 0.00 1.40 0.00 60 1011.1
20260506132515 14 205 3.2 11.3 0.00 1.40 0.00 64 1011.1
20260506132012 14 102 1.6 16.1 0.00 1.40 0.00 60 1011.1
20260506131535 14 221 1.6 16.1 0.00 1.40 0.00 61 1011.0
20260506131014 15 287 4.8 14.5 0.00 1.40 0.00 59 1011.2
20260506130516 15 63 1.6 4.8 0.00 1.40 0.00 65 1011.2
20260506130032 14 248 0.0 4.8 0.00 1.40 0.00 65 1011.1
20260506125514 14 277 0.0 11.3 0.00 1.40 0.00 64 1011.3
20260506125014 13 0 3.2 11.3 0.00 1.40 0.00 60 1011.3
20260506124530 13 230 1.6 12.9 0.00 1.40 0.00 64 1011.2
20260506124014 13 275 1.6 14.5 0.00 1.40 0.00 64 1011.2
20260506123512 13 284 3.2 14.5 0.00 1.40 0.00 66 1011.3
20260506123038 13 197 3.2 14.5 0.00 1.40 0.00 67 1011.2
20260506122514 13 30 3.2 17.7 0.00 1.40 0.00 66 1011.2
20260506122015 13 14 6.4 19.3 0.00 1.40 0.00 64 1011.2
20260506121529 13 336 4.8 19.3 0.00 1.40 0.00 65 1011.1
20260506121013 13 214 4.8 19.3 0.00 1.40 0.00 65 1011.1
20260506120515 13 44 6.4 12.9 0.00 1.40 0.00 65 1011.2
20260506120032 13 59 1.6 12.9 0.00 1.40 0.00 66 1011.1
20260506115514 13 334 4.8 12.9 0.00 1.40 0.00 63 1011.1
20260506115013 14 207 3.2 12.9 0.00 1.40 0.00 66 1011.1
20260506114530 13 44 4.8 16.1 0.00 1.40 0.00 66 1011.2
20260506114016 13 332 3.2 16.1 0.00 1.40 0.00 66 1011.1
20260506113514 13 311 3.2 16.1 0.00 1.40 0.00 65 1011.1
20260506113036 14 317 4.8 16.1 0.00 1.40 0.00 66 1011.0
20260506112515 14 311 6.4 16.1 0.00 1.40 0.00 60 1011.1
20260506112017 15 227 3.2 16.1 0.00 1.40 0.00 62 1011.1
20260506111711 14 147 1.6 6.4 0.00 1.40 0.00 67 1011.1
20260506111016 13 316 1.6 12.9 0.00 1.40 0.00 66 1011.1
20260506110518 12 57 4.8 12.9 0.00 1.40 0.00 65 1011.2
20260506110040 13 276 3.2 9.7 0.00 1.40 0.00 68 1011.3
20260506105516 13 329 1.6 17.7 0.00 1.40 0.00 68 1011.3
20260506105025 13 306 4.8 17.7 0.00 1.40 0.00 67 1011.3
20260506104530 13 335 8.0 17.7 0.00 1.40 0.00 65 1011.2
20260506104018 13 331 4.8 12.9 0.00 1.40 0.00 68 1011.3
20260506103517 12 41 3.2 16.1 0.00 1.40 0.00 73 1011.3
20260506103028 12 341 8.0 16.1 0.00 1.40 0.00 71 1011.3
20260506102512 11 66 6.4 16.1 0.00 1.40 0.00 71 1011.4
20260506102012 12 39 3.2 14.5 0.00 1.40 0.00 73 1011.4
20260506101533 13 318 1.6 6.4 0.00 1.40 0.00 74 1011.3
20260506101016 12 263 1.6 9.7 0.00 1.40 0.00 73 1011.3
20260506100621 12 241 0.0 9.7 0.00 1.40 0.00 74 1011.2
20260506100516 12 241 0.0 9.7 0.00 1.40 0.00 74 1011.2
20260506100030 12 34 4.8 9.7 0.00 1.40 0.00 73 1011.1
20260506095514 12 266 0.0 11.3 0.00 1.40 0.00 78 1011.3
20260506095031 12 10 1.6 11.3 0.00 1.40 0.00 75 1011.3
20260506094530 12 146 0.0 8.0 0.00 1.40 0.00 76 1011.2
20260506094016 12 311 1.6 9.7 0.00 1.40 0.00 78 1011.1
20260506093516 11 350 3.2 14.5 0.00 1.40 0.00 78 1011.2
20260506093034 11 341 4.8 16.1 0.00 1.40 0.00 76 1011.2
20260506092514 11 278 6.4 16.1 0.00 1.40 0.00 78 1011.0
20260506092014 11 23 4.8 11.3 0.00 1.40 0.00 77 1011.1
20260506091531 11 347 6.4 11.3 0.00 1.40 0.00 78 1011.1
20260506091017 11 337 3.2 8.0 0.00 1.40 0.00 80 1011.1
20260506090520 11 329 3.2 8.0 0.00 1.40 0.00 81 1011.1
20260506090038 10 0 0.0 8.0 0.00 1.40 0.00 83 1011.1
20260506085513 10 289 1.6 8.0 0.00 1.40 0.00 82 1011.1
20260506085013 10 279 1.6 8.0 0.00 1.40 0.00 83 1011.1
20260506084537 10 30 3.2 9.7 0.00 1.40 0.00 81 1011.1
20260506084014 10 22 1.6 14.5 0.00 1.40 0.00 81 1011.0
20260506083515 10 315 3.2 14.5 0.00 1.40 0.00 81 1010.9
20260506083032 10 256 3.2 14.5 0.00 1.40 0.00 81 1010.9
20260506082516 10 24 1.6 12.9 0.00 1.40 0.00 83 1010.9
20260506082014 10 44 3.2 12.9 0.00 1.40 0.00 82 1010.8
20260506081530 10 323 3.2 12.9 0.00 1.40 0.00 83 1010.7
20260506081016 10 292 1.6 14.5 0.00 1.40 0.00 85 1010.7
20260506080515 10 45 3.2 14.5 0.00 1.40 0.00 85 1010.7
20260506073518 9 346 6.4 14.5 0.00 1.40 0.00 87 1010.5
20260506073032 9 328 4.8 14.5 0.00 1.40 0.00 89 1010.6
20260506072515 9 283 4.8 14.5 0.00 1.40 0.00 89 1010.6
20260506072015 9 336 3.2 12.9 0.00 1.40 0.00 90 1010.7
20260506071531 9 348 1.6 6.4 0.00 1.40 0.00 90 1010.6
20260506071016 9 346 4.8 12.9 0.00 1.40 0.00 90 1010.6
20260506070518 8 327 4.8 12.9 0.00 1.40 0.00 91 1010.4
20260506062514 8 335 3.2 8.0 0.00 1.42 0.00 95 1010.4
20260506062018 8 327 0.0 3.2 0.00 1.42 0.00 95 1010.4
20260506061530 7 346 1.6 3.2 0.00 1.42 0.00 95 1010.5
20260506061014 8 309 1.6 3.2 0.00 1.42 0.00 96 1010.4
20260506060628 7 322 0.0 3.2 0.00 1.42 0.00 95 1010.5
20260506060447 7 321 0.0 1.6 0.00 1.42 0.00 96 1010.3
20260506051013 7 0 0.0 1.6 0.00 1.42 0.00 95 1009.9
20260506050620 7 0 0.0 1.6 0.00 1.42 0.00 96 1009.9
20260506045014 7 0 0.0 1.6 0.00 1.47 0.00 95 1009.8
20260506044543 7 0 0.0 1.6 0.00 1.47 0.00 95 1009.7
20260506044013 7 0 0.0 1.6 0.00 1.47 0.00 95 1009.7
20260506043541 7 0 0.0 1.6 0.00 1.47 0.00 95 1009.7
20260506043035 7 0 0.0 1.6 0.00 1.45 0.00 95 1009.7
20260506042514 7 360 0.0 1.6 0.00 1.45 0.00 95 1009.7
20260506042018 7 0 0.0 1.6 0.00 1.45 0.00 95 1009.8
20260506041533 7 0 0.0 1.6 0.00 1.45 0.00 95 1009.8
20260506041020 7 0 0.0 1.6 0.00 1.45 0.00 95 1009.8
20260506040513 7 0 0.0 1.6 0.00 1.45 0.00 95 1009.7
20260506040029 7 0 0.0 1.6 0.00 1.45 0.00 95 1009.8
20260506035514 7 360 0.0 1.6 0.00 1.47 0.00 95 1009.7
20260506035013 7 0 0.0 1.6 0.00 1.47 0.00 95 1009.8
20260506034531 7 0 0.0 1.6 0.00 1.47 0.00 95 1009.7
20260506034011 7 0 0.0 1.6 0.00 1.47 0.00 95 1009.7
20260506033541 7 360 0.0 1.6 0.00 1.47 0.00 95 1009.7
20260506033031 7 0 0.0 1.6 0.00 1.47 0.00 95 1009.7
20260506032512 7 5 0.0 1.6 0.00 1.47 0.00 95 1009.8
20260506032012 7 310 0.0 0.0 0.00 1.47 0.00 95 1009.8
20260506031544 7 0 0.0 0.0 0.00 1.47 0.00 95 1009.8
20260506031016 7 307 0.0 0.0 0.00 1.47 0.00 95 1009.8
20260506030515 7 0 0.0 0.0 0.00 1.47 0.00 95 1009.9
20260506030031 7 0 0.0 1.6 0.00 1.47 0.00 95 1009.8
20260506025618 7 0 0.0 1.6 0.00 1.47 0.00 95 1009.8
20260506025011 7 0 0.0 1.6 0.00 1.47 0.00 95 1009.8
20260506024556 7 0 0.0 1.6 0.00 1.47 0.00 95 1009.9
20260506024013 7 335 0.0 1.6 0.00 1.47 0.00 95 1009.8
20260506023513 7 319 0.0 1.6 0.00 1.47 0.00 95 1009.8
20260506023030 7 318 0.0 0.0 0.00 1.47 0.00 95 1009.8
20260506022516 7 0 0.0 0.0 0.00 1.47 0.00 95 1009.8
20260506022014 7 0 0.0 0.0 0.00 1.47 0.00 95 1009.9
20260506021533 7 0 0.0 0.0 0.00 1.47 0.00 95 1009.9
20260506021016 7 0 0.0 0.0 0.00 1.47 0.00 95 1009.8
20260506020611 7 0 0.0 1.6 0.00 1.47 0.00 95 1009.9
20260506020030 7 0 0.0 1.6 0.00 1.47 0.00 95 1009.8
20260506015514 7 0 0.0 3.2 0.00 1.50 0.00 95 1009.8
20260506015239 7 26 1.6 3.2 0.00 1.50 0.00 95 1009.7
20260506014635 7 350 0.0 1.6 0.00 1.50 0.00 95 1009.8
20260506014013 7 350 0.0 1.6 0.00 1.50 0.00 95 1009.7
20260506013511 7 0 0.0 1.6 0.00 1.50 0.00 95 1009.8
20260506013035 7 350 0.0 1.6 0.00 1.50 0.00 95 1009.8
20260506012513 7 350 0.0 1.6 0.00 1.50 0.00 95 1009.7
20260506012014 7 0 0.0 3.2 0.00 1.50 0.00 95 1009.7
20260506011527 7 350 1.6 3.2 0.00 1.50 0.00 95 1009.7
20260506011016 7 90 0.0 1.6 0.00 1.50 0.00 95 1009.8
20260506010518 7 0 0.0 1.6 0.00 1.50 0.00 95 1009.8
20260506010049 7 0 0.0 1.6 0.00 1.50 0.00 95 1009.8
20260506005514 7 96 0.0 0.0 0.00 1.55 0.00 95 1009.9
20260506005013 7 0 0.0 0.0 0.00 1.55 0.00 95 1010.0
20260506004532 7 0 0.0 0.0 0.00 1.55 0.00 95 1010.0
20260506004012 7 0 0.0 0.0 0.00 1.55 0.00 95 1010.0
20260506003512 7 0 0.0 0.0 0.00 1.55 0.00 95 1010.0
20260506003030 7 0 0.0 0.0 0.00 1.55 0.00 95 1010.1
20260506002516 7 0 0.0 0.0 0.00 1.55 0.00 95 1010.1
20260506002013 7 0 0.0 0.0 0.00 1.55 0.00 95 1010.2
20260506001530 7 0 0.0 0.0 0.00 1.55 0.00 95 1010.3
20260506001010 7 0 0.0 0.0 0.00 1.55 0.00 95 1010.4
20260506000512 7 0 0.0 0.0 0.00 1.55 0.00 95 1010.4
20260506000029 7 0 0.0 1.6 0.00 1.55 0.00 95 1010.4
20260505235517 7 0 0.0 1.6 0.00 1.55 0.00 95 1010.4
20260505235015 7 96 0.0 1.6 0.00 1.55 0.00 95 1010.4
20260505234530 7 0 0.0 0.0 0.00 1.55 0.00 94 1010.5
20260505234014 7 0 0.0 1.6 0.00 1.55 0.00 94 1010.6
20260505233512 7 0 0.0 1.6 0.00 1.55 0.00 94 1010.5
20260505233030 7 0 0.0 1.6 0.00 1.55 0.00 94 1010.6
20260505232517 7 0 0.0 1.6 0.00 1.55 0.00 94 1010.8
20260505232013 7 96 0.0 1.6 0.00 1.55 0.00 94 1010.9
20260505231528 7 19 0.0 1.6 0.00 1.55 0.00 94 1010.9
20260505231012 7 19 0.0 1.6 0.00 1.55 0.00 94 1010.9
20260505230512 7 0 0.0 1.6 0.00 1.55 0.00 94 1011.0
20260505230038 7 19 0.0 0.0 0.00 1.55 0.00 94 1011.1
20260505225513 7 0 0.0 0.0 0.00 1.57 0.00 94 1011.0
20260505225010 7 0 0.0 0.0 0.00 1.57 0.00 94 1011.0
20260505224532 7 0 0.0 1.6 0.00 1.57 0.00 94 1011.1
20260505224013 7 0 0.0 1.6 0.00 1.57 0.00 94 1011.1
20260505223512 7 0 0.0 1.6 0.00 1.57 0.00 94 1011.1
20260505223029 7 0 0.0 1.6 0.00 1.57 0.00 94 1011.1
20260505222510 7 0 0.0 1.6 0.00 1.57 0.00 94 1011.1
20260505222015 7 0 0.0 1.6 0.00 1.57 0.00 94 1011.2
20260505221528 7 351 0.0 3.2 0.00 1.57 0.00 94 1011.1
20260505221013 7 0 0.0 3.2 0.00 1.57 0.00 94 1011.3
20260505220612 7 10 1.6 4.8 0.00 1.57 0.00 94 1011.3
20260505220030 7 323 1.6 4.8 0.00 1.57 0.00 94 1011.3
20260505215513 7 5 1.6 4.8 0.03 1.88 1.57 94 1011.4
20260505215014 7 342 1.6 4.8 0.03 1.88 1.57 94 1011.5
20260505214530 7 0 1.6 3.2 0.03 1.88 1.57 93 1011.4
20260505214011 7 0 0.0 0.0 0.03 1.88 1.57 94 1011.4
20260505213513 7 0 0.0 0.0 0.05 1.88 1.57 93 1011.5
20260505213030 7 0 0.0 0.0 0.05 1.88 1.57 93 1011.6
20260505212515 7 0 0.0 0.0 0.05 1.88 1.57 93 1011.6
20260505212013 7 0 0.0 1.6 0.08 1.88 1.57 93 1011.7
20260505211528 7 0 0.0 1.6 0.08 1.88 1.57 93 1011.8
20260505211014 7 198 0.0 1.6 0.05 1.85 1.57 93 1011.9
20260505210512 7 0 0.0 1.6 0.05 1.85 1.57 93 1011.9
20260505210030 7 0 0.0 1.6 0.05 1.85 1.57 93 1012.0
20260505205513 7 311 0.0 3.2 0.03 1.88 1.55 93 1012.1
20260505205010 7 0 0.0 3.2 0.03 1.88 1.55 93 1011.9
20260505204530 7 0 1.6 4.8 0.03 1.88 1.55 93 1011.8
20260505204015 7 17 1.6 4.8 0.05 1.88 1.55 93 1011.7
20260505203513 7 318 3.2 4.8 0.03 1.85 1.52 93 1011.8
20260505203036 7 26 1.6 6.4 0.05 1.85 1.52 93 1011.8
20260505202519 7 12 3.2 6.4 0.03 1.83 1.50 93 1012.0
20260505202016 8 340 1.6 3.2 0.05 1.83 1.50 93 1012.0
20260505201537 8 329 1.6 3.2 0.05 1.83 1.50 93 1012.1
20260505201014 8 349 1.6 3.2 0.08 1.83 1.50 93 1012.2
20260505200513 8 310 0.0 3.2 0.13 1.83 1.50 93 1012.4
20260505200034 8 298 0.0 3.2 0.15 1.83 1.50 93 1012.3
20260505195619 8 329 1.6 9.7 0.18 2.06 1.50 93 1012.2
20260505195015 8 320 1.6 9.7 0.23 2.06 1.50 93 1012.3
20260505194532 8 311 1.6 9.7 0.28 2.06 1.50 92 1012.2
20260505194024 8 336 4.8 9.7 0.30 2.03 1.50 92 1012.1
20260505193510 8 34 1.6 6.4 0.33 2.01 1.47 92 1012.1
20260505193031 8 0 0.0 6.4 0.36 2.01 1.47 92 1012.0
20260505192609 8 302 1.6 14.5 0.38 1.98 1.45 92 1011.8
20260505192014 8 306 4.8 14.5 0.43 1.98 1.45 92 1011.7
20260505191532 8 317 1.6 12.9 0.46 1.98 1.45 92 1011.6
20260505191044 8 348 4.8 14.5 0.46 1.96 1.40 92 1011.3
20260505190519 8 327 4.8 14.5 0.48 1.91 1.37 91 1011.2
20260505190038 9 306 3.2 12.9 0.46 1.88 1.32 91 1011.3
20260505185515 9 315 1.6 11.3 0.46 1.85 1.30 91 1011.2
20260505185014 9 240 4.8 16.1 0.46 1.80 1.24 91 1011.3
20260505184532 10 312 6.4 16.1 0.46 1.78 1.22 91 1011.3
20260505184021 10 0 1.6 4.8 0.48 1.73 1.17 92 1011.1
20260505183510 10 20 0.0 4.8 0.51 1.68 1.12 92 1011.0
20260505183217 10 0 0.0 1.6 0.53 1.65 1.09 92 1010.9
20260505182514 10 0 0.0 1.6 0.51 1.57 1.02 92 1010.8
20260505182013 10 0 0.0 1.6 0.48 1.57 1.02 92 1010.7
20260505181609 10 0 0.0 0.0 0.46 1.52 0.97 91 1010.6
20260505181011 10 0 0.0 1.6 0.38 1.47 0.91 91 1010.6
20260505180512 10 0 0.0 1.6 0.36 1.42 0.86 91 1010.5
20260505180030 10 0 0.0 1.6 0.33 1.40 0.84 91 1010.5
20260505175515 10 145 0.0 1.6 0.28 1.40 0.81 90 1010.5
20260505175018 10 0 0.0 4.8 0.23 1.32 0.74 90 1010.4
20260505174537 10 0 0.0 4.8 0.18 1.30 0.71 90 1010.4
20260505174016 10 194 0.0 6.4 0.15 1.24 0.66 90 1010.4
20260505173540 10 107 0.0 6.4 0.08 1.17 0.58 89 1010.4
20260505173040 10 0 0.0 3.2 0.03 1.12 0.56 89 1010.3
20260505172011 11 193 1.6 11.3 0.30 1.09 0.51 87 1010.2
20260505171541 11 239 1.6 11.3 0.28 1.07 0.48 86 1010.2
20260505171015 11 203 1.6 11.3 0.28 1.04 0.46 84 1010.2
20260505170511 11 146 1.6 9.7 0.15 0.94 0.36 83 1010.0
20260505170032 12 71 3.2 8.0 0.08 0.84 0.28 80 1010.0
20260505165518 12 314 0.0 4.8 0.00 0.76 0.18 78 1009.9
20260505165014 12 151 1.6 12.9 0.00 0.76 0.18 76 1009.7
20260505164529 12 246 1.6 12.9 0.00 0.76 0.18 76 1009.8
20260505164014 12 144 3.2 12.9 0.00 0.76 0.18 75 1009.8
20260505163514 13 234 4.8 12.9 0.00 0.76 0.18 74 1009.7
20260505163028 13 0 1.6 11.3 0.00 0.76 0.18 73 1009.8
20260505162514 13 316 3.2 12.9 0.00 0.76 0.18 71 1009.7
20260505162015 14 250 4.8 17.7 0.00 0.76 0.18 69 1009.6
20260505161530 15 198 4.8 17.7 0.00 0.76 0.18 67 1009.6
20260505161014 16 192 3.2 35.4 0.00 0.76 0.18 65 1009.5
20260505160517 17 68 4.8 38.6 0.00 0.76 0.18 62 1009.4
20260505153029 19 259 3.2 14.5 0.00 0.76 0.18 50 1009.1
20260505152513 19 311 4.8 14.5 0.00 0.76 0.18 48 1009.3
20260505152013 19 55 4.8 11.3 0.00 0.76 0.18 52 1009.1
20260505151534 19 346 3.2 9.7 0.00 0.76 0.18 54 1009.2
20260505151014 18 346 3.2 9.7 0.00 0.76 0.18 59 1009.2
20260505150514 18 43 3.2 19.3 0.00 0.76 0.18 59 1009.2
20260505140515 17 351 1.6 6.4 0.00 0.76 0.18 61 1009.6